FW8285 Weather Reports


Display with metric or nautical units.
time (UTC)temp
F
wind
direction
speed
MPH
gust
MPH
rain 1hr
in
rain 24hr
in
rain mn
in
humidity
%
barometer
mb
20260508180042 51 180 3.0 15.0 0.00 0.00 0.00 61 1010.1
20260508174541 52 284 3.0 12.0 0.00 0.00 0.00 62 1010.1
20260508173039 51 147 5.0 13.0 0.00 0.00 0.00 63 1010.3
20260508171536 50 309 4.0 14.0 0.00 0.00 0.00 63 1010.4
20260508170052 51 103 3.0 13.0 0.00 0.00 0.00 63 1010.5
20260508164546 48 308 6.0 17.0 0.00 0.00 0.00 68 1010.6
20260508163041 49 281 3.0 10.0 0.00 0.00 0.00 63 1010.6
20260508161538 49 175 3.0 13.0 0.00 0.00 0.00 63 1010.3
20260508160037 49 159 3.0 15.0 0.00 0.00 0.00 58 1010.4
20260508154601 50 307 4.0 13.0 0.00 0.00 0.00 58 1010.5
20260508153046 49 169 4.0 13.0 0.00 0.00 0.00 59 1010.6
20260508151542 49 330 3.0 11.0 0.00 0.00 0.00 60 1010.3
20260508150039 50 275 3.0 9.0 0.00 0.00 0.00 59 1010.3
20260508144542 49 311 3.0 11.0 0.00 0.00 0.00 60 1010.3
20260508143046 50 317 4.0 12.0 0.00 0.00 0.00 61 1010.2
20260508141543 48 240 3.0 12.0 0.00 0.00 0.00 64 1010.2
20260508140043 48 278 4.0 11.0 0.00 0.00 0.00 66 1010.1
20260508134554 47 241 3.0 10.0 0.00 0.00 0.00 67 1010.4
20260508133048 47 240 4.0 10.0 0.00 0.00 0.00 69 1010.4
20260508131539 46 180 3.0 10.0 0.00 0.00 0.00 73 1010.6
20260508130044 45 270 2.0 9.0 0.00 0.00 0.00 75 1010.7
20260508124543 44 217 4.0 11.0 0.00 0.00 0.00 77 1010.9
20260508123047 43 327 2.0 11.0 0.00 0.00 0.00 80 1010.8
20260508121537 42 173 2.0 10.0 0.00 0.00 0.00 83 1010.8
20260508120048 42 260 3.0 12.0 0.00 0.00 0.00 85 1010.7
20260508114543 41 294 3.0 8.0 0.00 0.00 0.00 87 1010.8
20260508113042 39 284 2.0 6.0 0.00 0.00 0.00 88 1010.7
20260508111539 39 294 0.0 6.0 0.00 0.00 0.00 88 1010.7
20260508110040 39 0 1.0 4.0 0.00 0.00 0.00 88 1010.5
20260508104537 39 252 2.0 7.0 0.00 0.00 0.00 86 1010.4
20260508103041 39 267 1.0 4.0 0.00 0.00 0.00 85 1010.3
20260508101543 40 212 0.0 7.0 0.00 0.00 0.00 83 1010.1
20260508100053 40 302 2.0 9.0 0.00 0.00 0.00 81 1010.1
20260508094539 40 246 2.0 8.0 0.00 0.00 0.00 79 1009.8
20260508093047 40 282 2.0 8.0 0.00 0.00 0.00 77 1009.8
20260508091547 40 267 2.0 7.0 0.00 0.00 0.00 77 1009.6
20260508090106 39 0 3.0 7.0 0.00 0.00 0.00 76 1009.3
20260508084544 39 274 2.0 8.0 0.00 0.00 0.00 76 1009.3
20260508083038 39 267 1.0 5.0 0.00 0.00 0.00 75 1009.1
20260508081548 39 0 0.0 3.0 0.00 0.00 0.00 74 1009.1
20260508080042 40 301 0.0 2.0 0.00 0.00 0.00 73 1009.1
20260508074547 40 0 1.0 3.0 0.00 0.00 0.00 72 1008.9
20260508073057 40 279 0.0 3.0 0.00 0.00 0.00 72 1008.7
20260508071537 39 290 1.0 5.0 0.00 0.00 0.00 72 1008.7
20260508070048 38 0 0.0 2.0 0.00 0.00 0.00 75 1008.7
20260508064542 38 0 0.0 2.0 0.00 0.00 0.00 75 1008.7
20260508063039 38 0 0.0 1.0 0.00 0.00 0.00 75 1008.7
20260508061542 38 0 0.0 2.0 0.00 0.00 0.00 74 1008.8
20260508060049 38 263 0.0 3.0 0.00 0.00 0.00 76 1009.0
20260508054543 36 0 0.0 1.0 0.00 0.00 0.00 80 1009.1
20260508053042 35 0 0.0 0.0 0.00 0.00 0.00 78 1009.2
20260508051559 36 0 0.0 1.0 0.00 0.00 0.00 77 1009.2
20260508050038 36 0 0.0 0.0 0.00 0.00 0.00 76 1009.2
20260508044543 36 0 0.0 0.0 0.00 0.00 0.00 75 1009.1
20260508043046 37 0 0.0 0.0 0.00 0.00 0.00 74 1009.1
20260508041542 38 0 0.0 0.0 0.00 0.00 0.00 73 1008.9
20260508040051 39 0 0.0 0.0 0.00 0.00 0.00 70 1008.8
20260508034546 40 0 0.0 0.0 0.00 0.00 0.00 67 1008.8
20260508033045 41 0 0.0 0.0 0.00 0.00 0.00 63 1008.9
20260508031541 41 0 0.0 1.0 0.00 0.00 0.00 63 1009.1
20260508030047 42 0 0.0 2.0 0.00 0.00 0.00 61 1009.1
20260508024610 42 0 0.0 0.0 0.00 0.00 0.00 59 1009.1
20260508023041 43 0 0.0 1.0 0.00 0.00 0.00 59 1009.1
20260508021546 43 0 0.0 4.0 0.00 0.00 0.00 57 1009.1
20260508020047 43 273 0.0 3.0 0.00 0.00 0.00 55 1009.0
20260508014552 44 0 0.0 3.0 0.00 0.01 0.00 55 1008.9
20260508013037 45 0 0.0 5.0 0.00 0.01 0.00 52 1008.8
20260508011544 46 279 1.0 6.0 0.00 0.01 0.00 50 1008.8
20260508010051 46 267 1.0 4.0 0.00 0.01 0.00 49 1008.6
20260508004546 46 0 0.0 3.0 0.00 0.01 0.00 49 1008.4
20260508003038 48 279 1.0 6.0 0.00 0.01 0.00 46 1008.3
20260508001545 49 279 2.0 9.0 0.00 0.01 0.00 43 1008.2
20260508000044 50 244 3.0 9.0 0.00 0.01 0.00 43 1007.9
20260507234542 50 250 2.0 8.0 0.00 0.01 0.00 45 1007.8
20260507233041 52 272 4.0 11.0 0.00 0.01 0.00 43 1007.6
20260507231543 53 273 1.0 11.0 0.00 0.01 0.00 42 1007.6
20260507230042 53 250 3.0 11.0 0.00 0.01 0.00 40 1007.6
20260507224537 53 255 5.0 16.0 0.00 0.01 0.00 39 1007.7
20260507223045 54 288 3.0 11.0 0.00 0.01 0.00 43 1007.5
20260507221545 54 307 5.0 12.0 0.00 0.01 0.00 40 1007.6
20260507220042 55 265 4.0 14.0 0.00 0.01 0.00 41 1007.7
20260507214537 54 269 7.0 18.0 0.00 0.02 0.00 42 1007.8
20260507213037 54 282 5.0 16.0 0.00 0.02 0.00 44 1007.6
20260507211537 54 260 5.0 15.0 0.00 0.02 0.00 44 1007.7
20260507210053 54 286 4.0 15.0 0.00 0.02 0.00 49 1007.7
20260507204541 54 280 5.0 17.0 0.00 0.03 0.00 44 1007.7
20260507203114 54 266 7.0 19.0 0.00 0.03 0.00 44 1007.8
20260507201537 55 256 7.0 16.0 0.00 0.03 0.00 45 1007.7
20260507200037 55 240 7.0 16.0 0.00 0.03 0.00 46 1007.9
20260507194536 54 230 8.0 18.0 0.00 0.03 0.00 50 1008.0
20260507193044 54 238 9.0 17.0 0.00 0.03 0.00 45 1007.9
20260507191545 54 315 6.0 20.0 0.00 0.03 0.00 48 1008.2
20260507190046 54 284 7.0 19.0 0.00 0.03 0.00 48 1008.3
20260507184537 53 234 7.0 15.0 0.00 0.04 0.00 50 1008.5
20260507183036 53 285 7.0 15.0 0.00 0.04 0.00 49 1008.7